Tegucigalpa, Honduras

12:38 PM CST en Octubre 17, 2017 (GMT -0600)
Toncontin International

Tiempo Historia de MHTG - Octubre, 2017

Change the Weather History Date:

Jueves, Octubre 12, 2017

  Actual Average Record
Temperature  
Temperatura media 72 ° F -  
Temperatura máxima 81 ° F 78 ° F 86 ° F (2003)
Temperatura mínima 64 ° F 61 ° F 60 ° F (1996)
Cooling Degree Days 8    
Growing Degree Days 22 (Base 50)    
Moisture  
Punto de rocío 66 ° F    
Average Humidity 85    
Maximum Humidity 100    
Minimum Humidity 54    
Precipitación  
Precipitación 0.35 pul 0.11 pul - ()
Presión al nivel del mar  
Presión al nivel del mar 29.98 pul    
Viento  
Velocidad del viento 3 mph ()    
Velocidad máxima del viento 14 mph    
Max Gust Speed -    
Visibilidad 4.8 Millas    
Eventos Lluvia , Tormenta    
Averages and records for this station are not official NWS values.
T = Trace of Precipitation, MM = Missing Value Source: Averaged Metar Reports

Daily Weather History Graph

Daily Weather History Graph

Search for Another Location

Airport or City:

Trip Planner

Search our weather history database for the weather conditions in past years. The results will help you decide how hot, cold, wet, or windy it might be!

Date:

Astronomía

Oct. 12, 2017 Salida Puesta
Hora real 5:39 AM CST 5:30 PM CST
Crepúsculo civil 5:17 AM CST 5:52 PM CST
Crepúsculo náutico 4:53 AM CST 6:17 PM CST
Crepúsculo astronómico 4:28 AM CST 6:41 PM CST
Luna Sin salida de luna 12:18 PM CST (10/12)
Horas de luz 12h 34m
Horas de luz
11h 51m
Gibosa menguante, 48% of the Moon is Illuminated
Oct 12
Gibosa menguante
Oct 19
Nueva
Oct 27
Cuarto creciente
Nov 3
Luna llena
Nov 10
Cuarto menguante

Hourly Weather History & Observations

Hora (CST) Temp. Índice de calor Punto de rocío Humedad Presión Visibilidad Wind Dir Velocidad del viento Velocidad de ráfagas Precip Eventos Condiciones
12:00 AM 66 ° F - 66 ° F 100% 29.97 pul 6 mi Sin viento Sin viento - - Lluvia Lluvia débil
12:00 AM 66.2 ° F - 66.2 ° F 100% 30.06 pul 3.7 mi Sin viento Sin viento - N/A Lluvia Lluvia
1:00 AM 64.4 ° F - 64.4 ° F 100% 30.04 pul 5.0 mi Sin viento Sin viento - N/A   Muy nublado
2:00 AM 64.4 ° F - 64.4 ° F 100% 29.97 pul 5.0 mi Sin viento Sin viento - N/A   Nubes dispersas
2:05 AM 64.4 ° F - 64.4 ° F 100% 29.98 pul 5.0 mi Sin viento Sin viento - N/A   Muy nublado
3:00 AM 65 ° F - 65 ° F 98% 29.92 pul 5 mi Sin viento Sin viento - - Lluvia Lluvia débil
3:00 AM 64.4 ° F - 64.4 ° F 100% 29.98 pul 5.0 mi Sin viento Sin viento - N/A   Muy nublado
4:00 AM 64.4 ° F - 64.4 ° F 100% 29.98 pul 5.0 mi Sin viento Sin viento - N/A   Muy nublado
5:00 AM 66.2 ° F - 66.2 ° F 100% 30.04 pul 3.7 mi Sin viento Sin viento - N/A   Muy nublado
6:00 AM 66 ° F - 66 ° F 98% 29.95 pul 2 mi Sin viento Sin viento - -   Neblina
6:00 AM 66.2 ° F - 66.2 ° F 100% 30.04 pul 3.7 mi Sin viento Sin viento - N/A   Muy nublado
6:30 AM 66.2 ° F - 66.2 ° F 100% 30.09 pul 3.7 mi Sin viento Sin viento - N/A   Muy nublado
7:00 AM 66.2 ° F - 66.2 ° F 100% 30.04 pul 3.7 mi Sin viento Sin viento - N/A   Muy nublado
8:00 AM 69.8 ° F - 66.2 ° F 88% 30.04 pul 4.3 mi Sin viento Sin viento - N/A   Muy nublado
9:00 AM 74 ° F - 67 ° F 73% 29.91 pul 6 mi SE 4.6 mph - -   Bruma
9:00 AM 73.4 ° F - 68.0 ° F 83% 30.04 pul 6.2 mi SE 4.6 mph - N/A   Nubes dispersas
10:00 AM 77.0 ° F - 66.2 ° F 69% 30.04 pul 6.2 mi Norte 6.9 mph - N/A   Muy nublado
11:00 AM 78.8 ° F - 68.0 ° F 69% 30.04 pul 6.2 mi Norte 13.8 mph - N/A   Muy nublado
12:00 PM 81 ° F - 67 ° F 54% 29.82 pul 5 mi Norte 13.8 mph - -   Parcialmente nublado
12:00 PM 80.6 ° F 83.2 ° F 68.0 ° F 65% 30.01 pul 5.0 mi Norte 13.8 mph - N/A   Nubes dispersas
1:00 PM 80.6 ° F 83.9 ° F 69.8 ° F 70% 29.98 pul 5.0 mi NNE 11.5 mph - N/A   Nubes dispersas
2:00 PM 80.6 ° F 82.7 ° F 66.2 ° F 61% 29.95 pul 6.2 mi Norte 9.2 mph - N/A   Nubes dispersas
2:03 PM 80.6 ° F 82.3 ° F 64.4 ° F 58% 29.92 pul 6.2 mi Norte 4.6 mph - N/A Tormenta Tormenta
3:00 PM 78 ° F - 65 ° F 56% 29.77 pul 5 mi Norte 9.2 mph - - Tormenta Tormenta
3:00 PM 78.8 ° F - 64.4 ° F 61% 29.92 pul 5.0 mi Norte 9.2 mph - N/A Tormenta Tormenta
4:00 PM 77.0 ° F - 66.2 ° F 69% 29.95 pul 5.0 mi Sur 9.2 mph - N/A Tormenta Tormenta
5:00 PM 73.4 ° F - 66.2 ° F 78% 29.95 pul 6.2 mi SSE 4.6 mph - N/A   Nubes dispersas
6:00 PM 72 ° F - 67 ° F 81% 29.85 pul 6 mi Sin viento Sin viento - -   Parcialmente nublado
6:00 PM 71.6 ° F - 68.0 ° F 88% 29.98 pul 6.2 mi Sin viento Sin viento - N/A   Muy nublado
7:00 PM 71.6 ° F - 66.2 ° F 83% 30.01 pul 2.5 mi NNE 4.6 mph - N/A Lluvia Lluvia
7:22 PM 69.8 ° F - 66.2 ° F 88% 30.01 pul 4.3 mi Norte 6.9 mph - N/A Tormenta Desconocido
7:36 PM 71.6 ° F - 66.2 ° F 83% 30.01 pul 4.3 mi NNO 6.9 mph - N/A Lluvia Lluvia
8:00 PM 69.8 ° F - 66.2 ° F 88% 30.04 pul 3.7 mi NE 6.9 mph - N/A Lluvia , Tormenta Tormenta débil
9:00 PM 68 ° F - 67 ° F 94% 29.96 pul 2 mi SO 4.6 mph - - Lluvia , Tormenta Tormenta
9:00 PM 68.0 ° F - 66.2 ° F 94% 30.06 pul 5.0 mi SO 4.6 mph - N/A Lluvia , Tormenta Tormenta débil
10:00 PM 68.0 ° F - 66.2 ° F 94% 30.06 pul 4.3 mi Norte 4.6 mph - N/A Lluvia Lluvia
11:00 PM 68.0 ° F - 66.2 ° F 94% 30.06 pul 3.7 mi Sin viento Sin viento - N/A Lluvia Lluvia débil